"Pseudo-MPEC" for C0MVGG2

Created 2019 May 24 15:07:10 UT using Find_Orb

Click here for an explanation of pseudo-MPECs

 
 Astrometry: 
     C0MVGG2  C2019 05 15.33623 16 15 58.88 -12 22 22.0    ~5FBM 20.6 GVNEOCPG96
     C0MVGG2  C2019 05 15.34183 16 16 00.95 -12 22 23.9    ~5FBM 21.0 GVNEOCPG96
     C0MVGG2  C2019 05 15.34744 16 16 03.12 -12 22 26.2    ~5FBM 21.0 GVNEOCPG96
     C0MVGG2  C2019 05 15.35305 16 16 05.22 -12 22 29.0    ~5FBM 20.8 GVNEOCPG96
     C0MVGG2  C2019 05 15.45879 16 16 46.27 -12 23 15.1    ~5FBb 19.9 GVNEOCPI52
     C0MVGG2  C2019 05 15.46005 16 16 46.82 -12 23 16.5    ~5FBb 19.5 GVNEOCPI52
     C0MVGG2  C2019 05 15.46130 16 16 47.33 -12 23 16.3    ~5FBb 20.4 GVNEOCPI52
     C0MVGG2  C2019 05 15.46256 16 16 47.80 -12 23 16.4    ~5FBb 20.3 GVNEOCPI52
     C0MVGG2  C2019 05 15.46576 16 16 49.08 -12 23 18.9    ~5FBb 20.9 GVNEOCPG96
     C0MVGG2  C2019 05 15.46651 16 16 49.39 -12 23 18.2    ~5FBb 20.6 GVNEOCPG96
     C0MVGG2  C2019 05 15.46727 16 16 49.66 -12 23 18.5    ~5FBb 20.6 GVNEOCPG96
     C0MVGG2  C2019 05 15.46802 16 16 49.99 -12 23 18.4    ~5FBb 20.1 GVNEOCPG96
     C0MVGG2  C2019 05 17.30561 16 31 51.04 -12 39 22.0    ~5HBM       VNEOCPG96
     C0MVGG2  C2019 05 17.30770 16 31 52.20 -12 39 23.3    ~5HBM       VNEOCPG96
     C0MVGG2  C2019 05 17.30875 16 31 52.75 -12 39 23.6    ~5HBM       VNEOCPG96
     C0MVGG2  C2019 05 17.32003 16 31 58.70 -12 39 30.3    ~5HAq 20.1 GVNEOCPG96
     C0MVGG2  C2019 05 17.32124 16 31 59.46 -12 39 30.7    ~5HAq 20.1 GVNEOCPG96

Station data:
(G96) Mt. Lemmon Survey  (N32.442754 W110.788720)  US/Arizona.  Observers T.
   A. Pruyne, B. M. Africano, E. J. Christensen, G. A. Farneth, D. C. Fuls,
   A. R. Gibbs, A. D. Grauer, H. Groeller, J. A. Johnson, R. A. Kowalski, S.
   M. Larson, G. J. Leonard, R. L. Seaman, F. C. Shelly. 1.5-m reflector +
   10K CCD.
(I52) Steward Observatory, Mt. Lemmon Station  (N32.442547 W110.788920)
   US/Arizona.  Observers T. A. Pruyne, B. M. Africano, E. J. Christensen, G.
   A. Farneth, D. C. Fuls, A. R. Gibbs, A. D. Grauer, H. Groeller, J. A.
   Johnson, R. A. Kowalski, S. M. Larson, G. J. Leonard, R. L. Seaman, F. C.
   Shelly. 1.0-m reflector + CCD.

Orbital elements:  C0MVGG2
   Perihelion 2019 Jul 1.200187 +/- 0.28 TT =  4:48:16 (JD 2458665.700187)
Epoch 2019 May 17.0 TT = JDT 2458620.5   Earth MOID: 0.0032   Ju: 0.6990
M 350.05023984 +/- 1.5              Ma: 0.0318                AutoNEOCP
n   0.22012652 +/- 0.0342           Peri.  223.00415 +/- 0.8
a   2.71657142 +/- 0.281            Node    72.90558 +/- 0.24
e   0.6743168 +/- 0.0365            Incl.    2.75702 +/- 0.13
P   4.48                   H 24.7   G  0.15   U 10.5  
q 0.88474150 +/- 0.00832    Q 4.54840135 +/- 0.617
From 17 observations 2019 May 15-17 (47.6 hr); mean residual 0".41
Residuals in arcseconds: 
190515 G96  .66+  .49-    190515 I52  .37+  .07-    190517 G96  .33-  .17-    
190515 G96  .30-  .23+    190515 I52  .08-  .34+    190517 G96  .32+  .23-    
190515 G96  .13+  .54+    190515 G96  .05+  .85-    190517 G96  .17+  .09+    
190515 G96  .50-  .33+    190515 G96  .22+  .15+    190517 G96  .91-  .01+    
190515 I52  .58-  .10+    190515 G96  .25-  .16+    190517 G96  .75+  .32+    
190515 I52  .16+  .78-    190515 G96  .21+  .57+    

Ephemerides (geocentric):
Date (UTC) HH   RA              Dec         delta   r     elong  mag " sig PA
---- -- -- --  -------------   -----------  ------ ------ -----  --- ---- ---
2019 05 24 15  19 12 22.751   -12 26 39.28  .04239 1.0426 134.1 19.6 3548  85
2019 05 24 16  19 14 11.123   -12 24 28.42  .04223 1.0423 133.7 19.6 3612  85
2019 05 24 17  19 16 00.277   -12 22 13.90  .04207 1.0420 133.3 19.6 3675  85
2019 05 24 18  19 17 50.206   -12 19 55.65  .04191 1.0417 132.9 19.6 3740  85
2019 05 24 19  19 19 40.906   -12 17 33.65  .04176 1.0414 132.5 19.6 3805  85
2019 05 24 20  19 21 32.370   -12 15 07.83  .04161 1.0411 132.1 19.6 3870  85
2019 05 24 21  19 23 24.590   -12 12 38.18  .04146 1.0408 131.7 19.6 3937  84
2019 05 24 22  19 25 17.561   -12 10 04.63  .04132 1.0405 131.3 19.6 4003  84
2019 05 24 23  19 27 11.274   -12 07 27.15  .04118 1.0401 130.9 19.6 4070  84
2019 05 25 00  19 29 05.721   -12 04 45.71  .04104 1.0398 130.5 19.6 4138  84
2019 05 25 01  19 31 00.893   -12 02 00.26  .04090 1.0395 130.0 19.6 4206  84
2019 05 25 02  19 32 56.781   -11 59 10.78  .04076 1.0392 129.6 19.6 4275  84
2019 05 25 03  19 34 53.375   -11 56 17.22  .04063 1.0389 129.2 19.6 4344  84
2019 05 25 04  19 36 50.665   -11 53 19.57  .04050 1.0386 128.8 19.6 4413  84
2019 05 25 05  19 38 48.641   -11 50 17.78  .04038 1.0383 128.3 19.6 4483  84
2019 05 25 06  19 40 47.290   -11 47 11.84  .04026 1.0380 127.9 19.6 4553  84
2019 05 25 07  19 42 46.601   -11 44 01.72  .04014 1.0377 127.4 19.6 4624  83
2019 05 25 08  19 44 46.561   -11 40 47.40  .04002 1.0374 127.0 19.7 4695  83
2019 05 25 09  19 46 47.158   -11 37 28.86  .03991 1.0371 126.6 19.7 4766  83
2019 05 25 10  19 48 48.378   -11 34 06.08  .03979 1.0368 126.1 19.7 4837  83
2019 05 25 11  19 50 50.207   -11 30 39.06  .03969 1.0365 125.7 19.7 4909  83
2019 05 25 12  19 52 52.631   -11 27 07.77  .03958 1.0361 125.2 19.7 4981  83
2019 05 25 13  19 54 55.634   -11 23 32.21  .03948 1.0358 124.7 19.7 5053  83
2019 05 25 14  19 56 59.201   -11 19 52.37  .03938 1.0355 124.3 19.7 5125  83
2019 05 25 15  19 59 03.316   -11 16 08.26  .03929 1.0352 123.8 19.7 5197  83
2019 05 25 16  20 01 07.963   -11 12 19.88  .03919 1.0349 123.4 19.7 5269  83
2019 05 25 17  20 03 13.124   -11 08 27.22  .03910 1.0346 122.9 19.7 5341  82
2019 05 25 18  20 05 18.782   -11 04 30.29  .03902 1.0343 122.4 19.7 5413  82
2019 05 25 19  20 07 24.919   -11 00 29.11  .03894 1.0340 121.9 19.7 5485  82
2019 05 25 20  20 09 31.517   -10 56 23.69  .03886 1.0337 121.5 19.7 5557  82
2019 05 25 21  20 11 38.556   -10 52 14.05  .03878 1.0334 121.0 19.7 5629  82
2019 05 25 22  20 13 46.018   -10 48 00.20  .03871 1.0331 120.5 19.8 5701  82
2019 05 25 23  20 15 53.882   -10 43 42.17  .03864 1.0328 120.0 19.8 5772  82
2019 05 26 00  20 18 02.129   -10 39 20.00  .03857 1.0325 119.6 19.8 5844  82
2019 05 26 01  20 20 10.738   -10 34 53.70  .03851 1.0322 119.1 19.8 5915  82
2019 05 26 02  20 22 19.688   -10 30 23.31  .03845 1.0319 118.6 19.8 5985  82
2019 05 26 03  20 24 28.958   -10 25 48.88  .03839 1.0316 118.1 19.8 6056  81
2019 05 26 04  20 26 38.527   -10 21 10.44  .03834 1.0313 117.6 19.8 6126  81
2019 05 26 05  20 28 48.372   -10 16 28.04  .03829 1.0310 117.1 19.8 6195  81
2019 05 26 06  20 30 58.472   -10 11 41.72  .03824 1.0307 116.6 19.8 6264  81
2019 05 26 07  20 33 08.804   -10 06 51.54  .03820 1.0304 116.1 19.9 6332  81
2019 05 26 08  20 35 19.345   -10 01 57.56  .03816 1.0301 115.6 19.9 6400  81
2019 05 26 09  20 37 30.073   -09 56 59.83  .03812 1.0298 115.1 19.9 6468  81
2019 05 26 10  20 39 40.964   -09 51 58.41  .03809 1.0295 114.6 19.9 6534  81
2019 05 26 11  20 41 51.996   -09 46 53.37  .03806 1.0292 114.1 19.9 6600  81
2019 05 26 12  20 44 03.144   -09 41 44.78  .03803 1.0289 113.7 19.9 6665  81
2019 05 26 13  20 46 14.386   -09 36 32.72  .03801 1.0286 113.2 19.9 6730  81
2019 05 26 14  20 48 25.697   -09 31 17.24  .03799 1.0283 112.7 19.9 6794  80